Schneifelwetter: Wetterstation Hallschlag, 537 m . NN
Wetterdaten: Montag, 09.03.2009
Datum Zeit Temp. A. Temp. 2 Feuchte A. Luftdruck Regen Wind Richtung Richtung Sonnenschein Helligkeit T Regen Taupunkt Windchill
09.03.2009 00:01 0,7 C 0,6 C 93 % 1002 hPa 0,0 l/m 24,0 km/h (4 Bft) W45 260 0 min 0 lux 0,00 min -0,3 C -10,4 C
09.03.2009 00:16 0,4 C 0,5 C 93 % 1003 hPa 0,0 l/m 32,2 km/h (5 Bft) W45 260 0 min 0 lux 0,00 min -0,6 C -13,5 C
09.03.2009 00:31 0,4 C 0,4 C 93 % 1002 hPa 0,0 l/m 29,8 km/h (5 Bft) W-SW45 250 0 min 0 lux 0,00 min -0,6 C -12,8 C
09.03.2009 00:46 0,3 C 0,0 C 94 % 1002 hPa 0,0 l/m 34,5 km/h (5 Bft) W-SW45 250 0 min 0 lux 0,00 min -0,5 C -14,2 C
09.03.2009 01:01 -0,2 C -0,3 C 94 % 1003 hPa 0,0 l/m 26,8 km/h (4 Bft) W22.5 260 0 min 0 lux 0,00 min -1,0 C -12,6 C
09.03.2009 01:16 -0,2 C -0,2 C 95 % 1003 hPa 0,0 l/m 30,6 km/h (5 Bft) W-SW45 250 0 min 0 lux 0,00 min -0,9 C -13,9 C
09.03.2009 01:31 -0,2 C -0,3 C 95 % 1003 hPa 0,0 l/m 33,9 km/h (5 Bft) W-SW22.5 255 0 min 0 lux 0,00 min -0,9 C -14,8 C
09.03.2009 01:46 -0,4 C -0,4 C 95 % 1003 hPa 0,0 l/m 24,8 km/h (4 Bft) W-SW22.5 245 0 min 0 lux 0,00 min -1,1 C -12,2 C
09.03.2009 02:01 -0,5 C -0,7 C 95 % 1002 hPa 0,0 l/m 24,3 km/h (4 Bft) SW45 225 0 min 0 lux 0,00 min -1,2 C -12,1 C
09.03.2009 02:16 -0,6 C -0,6 C 95 % 1002 hPa 0,0 l/m 19,7 km/h (3 Bft) SW45 225 0 min 0 lux 0,00 min -1,3 C -10,3 C
09.03.2009 02:31 -0,3 C -0,3 C 96 % 1002 hPa 0,0 l/m 25,2 km/h (4 Bft) SW45 235 0 min 0 lux 0,00 min -0,9 C -12,2 C
09.03.2009 02:46 -0,2 C -0,2 C 96 % 1002 hPa 0,0 l/m 23,4 km/h (4 Bft) W-SW22.5 250 0 min 0 lux 0,00 min -0,8 C -11,4 C
09.03.2009 03:01 0,0 C 0,1 C 96 % 1002 hPa 0,0 l/m 26,2 km/h (4 Bft) SW22.5 230 0 min 0 lux 0,00 min -0,6 C -12,2 C
09.03.2009 03:16 0,1 C 0,2 C 96 % 1002 hPa 0,0 l/m 28,7 km/h (4 Bft) SW45 220 0 min 0 lux 0,00 min -0,5 C -12,9 C
09.03.2009 03:31 0,2 C 0,2 C 96 % 1002 hPa 0,0 l/m 38,6 km/h (5 Bft) SW45 235 0 min 0 lux 0,00 min -0,4 C -15,3 C
09.03.2009 03:46 0,1 C 0,3 C 96 % 1002 hPa 0,0 l/m 36,4 km/h (5 Bft) W-SW45 240 0 min 0 lux 0,00 min -0,5 C -15,0 C
09.03.2009 04:01 0,1 C 0,2 C 96 % 1002 hPa 0,0 l/m 27,4 km/h (4 Bft) W-SW45 250 0 min 0 lux 0,00 min -0,5 C -12,4 C
09.03.2009 04:16 0,1 C 0,2 C 96 % 1002 hPa 0,0 l/m 44,3 km/h (6 Bft) W-SW22.5 255 0 min 0 lux 0,00 min -0,5 C -16,6 C
09.03.2009 04:31 0,0 C 0,0 C 96 % 1002 hPa 0,0 l/m 35,0 km/h (5 Bft) W-SW22.5 250 0 min 0 lux 0,00 min -0,6 C -14,8 C
09.03.2009 04:46 -0,2 C -0,1 C 97 % 1002 hPa 0,0 l/m 28,3 km/h (4 Bft) W-SW45 255 0 min 0 lux 0,00 min -0,6 C -13,1 C
09.03.2009 05:01 -0,3 C -0,2 C 97 % 1003 hPa 0,0 l/m 37,0 km/h (5 Bft) W45 275 0 min 0 lux 0,00 min -0,7 C -15,7 C
09.03.2009 05:16 -0,5 C -0,4 C 96 % 1003 hPa 0,0 l/m 43,8 km/h (6 Bft) W45 270 0 min 0 lux 0,00 min -1,1 C -17,4 C
09.03.2009 05:31 -0,7 C -0,5 C 96 % 1004 hPa 0,0 l/m 40,3 km/h (6 Bft) W45 270 0 min 0 lux 0,00 min -1,3 C -17,0 C
09.03.2009 05:46 -1,0 C -0,8 C 94 % 1004 hPa 0,0 l/m 41,8 km/h (6 Bft) W45 265 0 min 0 lux 0,00 min -1,8 C -17,8 C
09.03.2009 06:01 -1,1 C -0,9 C 93 % 1005 hPa 0,0 l/m 48,5 km/h (6 Bft) W67.5 260 0 min 0 lux 0,00 min -2,1 C -19,1 C
09.03.2009 06:16 -1,1 C -1,0 C 94 % 1005 hPa 0,0 l/m 43,5 km/h (6 Bft) W22.5 265 0 min 0 lux 0,00 min -1,9 C -18,3 C
09.03.2009 06:31 -1,1 C -1,0 C 94 % 1005 hPa 0,0 l/m 32,5 km/h (5 Bft) W45 260 0 min 0 lux 0,00 min -1,9 C -15,7 C
09.03.2009 06:46 -1,1 C -1,0 C 95 % 1005 hPa 0,0 l/m 35,6 km/h (5 Bft) W-SW22.5 255 0 min 0 lux 0,00 min -1,8 C -16,5 C
09.03.2009 07:01 -1,0 C -0,9 C 95 % 1005 hPa 0,0 l/m 31,5 km/h (5 Bft) W-SW45 250 0 min 222 lux 0,00 min -1,7 C -15,3 C
09.03.2009 07:16 -0,9 C -0,9 C 96 % 1005 hPa 0,0 l/m 32,0 km/h (5 Bft) W-SW45 255 0 min 519 lux 0,00 min -1,5 C -15,3 C
09.03.2009 07:31 -0,7 C -0,7 C 97 % 1006 hPa 0,0 l/m 35,7 km/h (5 Bft) W22.5 260 0 min 1,30 klux 0,00 min -1,1 C -16,0 C
09.03.2009 07:46 -0,5 C -0,6 C 97 % 1006 hPa 0,0 l/m 34,0 km/h (5 Bft) W45 270 0 min 1,93 klux 0,00 min -0,9 C -15,3 C
09.03.2009 08:01 -0,3 C -0,3 C 97 % 1006 hPa 0,0 l/m 41,1 km/h (6 Bft) W22.5 260 0 min 3,57 klux 0,00 min -0,7 C -16,6 C
09.03.2009 08:16 -0,2 C -0,1 C 96 % 1006 hPa 0,0 l/m 31,1 km/h (5 Bft) W22.5 265 0 min 4,41 klux 0,00 min -0,8 C -14,0 C
09.03.2009 08:31 0,1 C 0,1 C 96 % 1006 hPa 0,0 l/m 33,4 km/h (5 Bft) W-SW22.5 255 0 min 7,27 klux 0,00 min -0,5 C -14,2 C
09.03.2009 08:46 0,2 C 0,1 C 95 % 1006 hPa 0,0 l/m 35,6 km/h (5 Bft) W22.5 260 0 min 6,93 klux 0,00 min -0,5 C -14,6 C
09.03.2009 09:01 0,3 C 0,3 C 95 % 1007 hPa 0,0 l/m 37,9 km/h (5 Bft) W22.5 260 0 min 9,3 klux 0,00 min -0,4 C -15,0 C
09.03.2009 09:16 0,6 C 0,5 C 95 % 1007 hPa 0,0 l/m 45,3 km/h (6 Bft) W-SW22.5 250 0 min 17,3 klux 0,00 min -0,1 C -16,0 C
09.03.2009 09:30 0,9 C 0,7 C 94 % 1007 hPa 0,0 l/m 36,4 km/h (5 Bft) W22.5 265 0 min 18,1 klux 0,00 min 0,0 C -13,8 C
09.03.2009 09:46 0,9 C 0,8 C 94 % 1007 hPa 0,0 l/m 41,4 km/h (6 Bft) W-SW45 255 0 min 15,6 klux 0,00 min 0,0 C -14,9 C
09.03.2009 10:01 1,2 C 1,0 C 93 % 1007 hPa 0,0 l/m 39,4 km/h (6 Bft) W22.5 260 0 min 19,0 klux 0,00 min 0,2 C -14,0 C
09.03.2009 10:16 1,4 C 1,3 C 93 % 1007 hPa 0,0 l/m 38,5 km/h (5 Bft) W-SW22.5 255 0 min 20,6 klux 0,00 min 0,4 C -13,6 C
09.03.2009 10:31 1,5 C 1,5 C 92 % 1007 hPa 0,0 l/m 53,7 km/h (7 Bft) W22.5 260 0 min 22,5 klux 0,00 min 0,3 C -15,8 C
09.03.2009 10:46 1,6 C 1,7 C 92 % 1008 hPa 0,0 l/m 43,3 km/h (6 Bft) W-SW22.5 255 0 min 22,8 klux 0,00 min 0,4 C -14,2 C
09.03.2009 11:01 2,0 C 2,1 C 91 % 1008 hPa 0,0 l/m 38,7 km/h (5 Bft) W-SW45 255 0 min 25,7 klux 0,00 min 0,7 C -12,7 C
09.03.2009 11:16 2,4 C 2,6 C 90 % 1008 hPa 0,0 l/m 41,2 km/h (6 Bft) W-SW67.5 250 15 min 30,2 klux 0,00 min 0,9 C -12,6 C
09.03.2009 11:31 2,8 C 2,9 C 89 % 1008 hPa 0,0 l/m 46,3 km/h (6 Bft) W22.5 260 15 min 70,6 klux 0,00 min 1,2 C -12,9 C
09.03.2009 11:46 3,3 C 3,9 C 87 % 1008 hPa 0,0 l/m 43,3 km/h (6 Bft) W-SW22.5 245 15 min 50,9 klux 0,00 min 1,3 C -11,6 C
09.03.2009 12:01 3,3 C 4,0 C 86 % 1008 hPa 0,0 l/m 40,1 km/h (6 Bft) W-SW45 255 0 min 28,3 klux 0,00 min 1,2 C -11,1 C
09.03.2009 12:16 3,7 C 4,4 C 85 % 1008 hPa 0,0 l/m 41,5 km/h (6 Bft) W-SW45 250 15 min 31,0 klux 0,00 min 1,4 C -10,7 C
09.03.2009 12:31 3,6 C 3,9 C 82 % 1008 hPa 0,0 l/m 45,2 km/h (6 Bft) W-SW45 255 0 min 20,8 klux 0,00 min 0,8 C -11,5 C
09.03.2009 12:46 3,8 C 4,6 C 83 % 1008 hPa 0,0 l/m 42,8 km/h (6 Bft) W45 265 15 min 73,2 klux 0,00 min 1,2 C -10,8 C
09.03.2009 13:01 3,9 C 4,3 C 81 % 1008 hPa 0,0 l/m 35,5 km/h (5 Bft) W22.5 265 15 min 38,6 klux 0,00 min 0,9 C -9,3 C
09.03.2009 13:15 3,5 C 3,8 C 82 % 1008 hPa 0,0 l/m 39,8 km/h (6 Bft) W45 265 0 min 20,7 klux 0,00 min 0,7 C -10,7 C
09.03.2009 13:16 3,5 C 3,8 C 82 % 1008 hPa 0,0 l/m 39,8 km/h (6 Bft) W45 265 0 min 20,7 klux 0,00 min 0,7 C -10,7 C
09.03.2009 13:31 4,2 C 5,6 C 82 % 1008 hPa 0,0 l/m 33,4 km/h (5 Bft) W45 265 15 min 65,6 klux 0,00 min 1,4 C -8,3 C
09.03.2009 13:46 3,9 C 4,4 C 79 % 1008 hPa 0,0 l/m 38,6 km/h (5 Bft) W22.5 260 0 min 20,1 klux 0,00 min 0,6 C -9,9 C
09.03.2009 14:01 3,3 C 3,3 C 82 % 1008 hPa 0,0 l/m 43,7 km/h (6 Bft) W22.5 260 15 min 44,3 klux 0,00 min 0,5 C -11,7 C
09.03.2009 14:16 2,3 C 3,3 C 87 % 1009 hPa 0,0 l/m 30,8 km/h (5 Bft) W22.5 260 15 min 57,5 klux 0,00 min 0,4 C -10,4 C
09.03.2009 14:31 3,0 C 3,1 C 90 % 1009 hPa 0,0 l/m 32,5 km/h (5 Bft) W22.5 260 15 min 32,2 klux 0,00 min 1,5 C -9,8 C
09.03.2009 14:45 3,0 C 3,5 C 90 % 1009 hPa 0,0 l/m 26,1 km/h (4 Bft) W-SW22.5 250 14 min 42,2 klux 0,00 min 1,5 C -8,0 C
09.03.2009 15:01 3,2 C 4,0 C 91 % 1009 hPa 0,0 l/m 22,1 km/h (4 Bft) SW45 230 0 min 26,7 klux 0,00 min 1,9 C -6,3 C
09.03.2009 15:16 3,6 C 4,0 C 88 % 1009 hPa 0,0 l/m 24,6 km/h (4 Bft) W22.5 265 0 min 19,3 klux 0,00 min 1,8 C -6,7 C
09.03.2009 15:31 3,5 C 3,6 C 87 % 1009 hPa 0,0 l/m 29,8 km/h (5 Bft) W22.5 260 0 min 18,3 klux 0,00 min 1,5 C -8,4 C
09.03.2009 15:46 3,0 C 3,2 C 87 % 1009 hPa 0,0 l/m 19,3 km/h (3 Bft) W45 260 0 min 8,40 klux 0,00 min 1,1 C -5,5 C
09.03.2009 16:01 3,0 C 4,5 C 88 % 1009 hPa 0,0 l/m 24,3 km/h (4 Bft) W-SW45 255 15 min 49,3 klux 0,00 min 1,2 C -7,4 C
09.03.2009 16:16 3,9 C 4,5 C 86 % 1009 hPa 0,0 l/m 31,0 km/h (5 Bft) W45 260 0 min 25,1 klux 0,00 min 1,8 C -8,2 C
09.03.2009 16:31 3,9 C 4,4 C 85 % 1010 hPa 0,0 l/m 29,1 km/h (5 Bft) W22.5 260 0 min 11,5 klux 0,00 min 1,6 C -7,7 C
09.03.2009 16:46 4,1 C 5,0 C 84 % 1010 hPa 1,8 l/m 30,4 km/h (5 Bft) W-SW45 250 0 min 25,2 klux 15,00 min 1,6 C -7,7 C
09.03.2009 17:01 4,1 C 5,0 C 80 % 1009 hPa 0,0 l/m 31,1 km/h (5 Bft) W-SW45 255 0 min 21,6 klux 0,00 min 1,0 C -7,9 C
09.03.2009 17:16 3,8 C 4,3 C 79 % 1010 hPa 0,0 l/m 34,8 km/h (5 Bft) W22.5 265 0 min 16,2 klux 0,00 min 0,5 C -9,2 C
09.03.2009 17:31 3,6 C 3,8 C 83 % 1010 hPa 0,0 l/m 38,7 km/h (5 Bft) W-SW45 255 0 min 24,5 klux 0,00 min 1,0 C -10,3 C
09.03.2009 17:46 2,9 C 3,2 C 86 % 1010 hPa 0,0 l/m 28,7 km/h (4 Bft) W45 260 0 min 18,2 klux 0,00 min 0,8 C -9,0 C
09.03.2009 18:00 2,7 C 2,7 C 87 % 1010 hPa 0,0 l/m 16,5 km/h (3 Bft) W22.5 265 0 min 6,62 klux 0,00 min 0,8 C -4,5 C
09.03.2009 18:16 2,4 C 2,4 C 88 % 1010 hPa 0,0 l/m 20,8 km/h (4 Bft) W45 260 0 min 1,27 klux 0,00 min 0,6 C -6,9 C
09.03.2009 18:31 2,0 C 1,5 C 88 % 1011 hPa 0,0 l/m 25,0 km/h (4 Bft) W22.5 265 0 min 1,03 klux 0,00 min 0,2 C -9,0 C
09.03.2009 18:46 1,5 C 1,0 C 89 % 1011 hPa 0,0 l/m 19,4 km/h (3 Bft) SW45 235 0 min 310 lux 0,00 min -0,1 C -7,4 C
09.03.2009 19:01 1,2 C 1,0 C 92 % 1011 hPa 0,0 l/m 21,1 km/h (4 Bft) W-SW22.5 250 0 min 52 lux 0,00 min 0,0 C -8,6 C
09.03.2009 19:16 1,1 C 0,8 C 92 % 1011 hPa 0,0 l/m 20,5 km/h (4 Bft) SW45 230 0 min 7 lux 0,00 min -0,1 C -8,4 C
09.03.2009 19:31 1,0 C 0,8 C 93 % 1011 hPa 0,0 l/m 19,2 km/h (3 Bft) W-SW22.5 240 0 min 1 lux 0,00 min -0,0 C -8,0 C
09.03.2009 19:46 1,0 C 0,6 C 93 % 1011 hPa 0,0 l/m 14,1 km/h (3 Bft) W-SW22.5 250 0 min 0 lux 0,00 min -0,0 C -5,2 C
09.03.2009 20:00 0,9 C 0,6 C 93 % 1011 hPa 0,0 l/m 17,5 km/h (3 Bft) W-SW22.5 250 0 min 0 lux 0,00 min -0,1 C -7,3 C
09.03.2009 20:16 0,9 C 0,7 C 94 % 1011 hPa 0,0 l/m 10,2 km/h (2 Bft) SW22.5 235 0 min 0 lux 0,00 min 0,0 C -2,6 C
09.03.2009 20:31 1,0 C 0,7 C 94 % 1011 hPa 0,0 l/m 8,4 km/h (2 Bft) W 260 0 min 0 lux 0,00 min 0,1 C -1,0 C
09.03.2009 20:46 0,9 C 0,6 C 94 % 1011 hPa 0,0 l/m 8,2 km/h (2 Bft) S-SW22.5 195 0 min 0 lux 0,00 min 0,0 C -0,9 C
09.03.2009 21:01 0,9 C 0,5 C 95 % 1012 hPa 0,3 l/m 21,3 km/h (4 Bft) W22.5 270 0 min 0 lux 15,00 min 0,2 C -9,0 C
09.03.2009 21:16 0,6 C 0,3 C 95 % 1012 hPa 0,0 l/m 10,0 km/h (2 Bft) W22.5 270 0 min 0 lux 0,00 min -0,1 C -2,8 C
09.03.2009 21:31 0,4 C 0,2 C 95 % 1012 hPa 0,0 l/m 13,1 km/h (3 Bft) W-SW 245 0 min 0 lux 0,00 min -0,3 C -5,3 C
09.03.2009 21:45 0,4 C 0,2 C 95 % 1012 hPa 0,0 l/m 13,3 km/h (3 Bft) W-SW22.5 250 0 min 0 lux 0,00 min -0,3 C -5,4 C
09.03.2009 22:01 0,5 C 0,1 C 95 % 1012 hPa 0,0 l/m 7,3 km/h (2 Bft) W-SW 255 0 min 0 lux 0,00 min -0,2 C -0,4 C
09.03.2009 22:16 0,6 C 0,2 C 96 % 1012 hPa 0,0 l/m 11,4 km/h (2 Bft) SW22.5 235 0 min 0 lux 0,00 min 0,0 C -3,9 C
09.03.2009 22:31 0,7 C 0,3 C 96 % 1012 hPa 0,0 l/m 18,4 km/h (3 Bft) W-SW22.5 250 0 min 0 lux 0,00 min 0,1 C -8,0 C
09.03.2009 22:46 0,7 C 0,3 C 96 % 1012 hPa 0,0 l/m 12,0 km/h (2 Bft) W-SW 250 0 min 0 lux 0,00 min 0,1 C -4,2 C
09.03.2009 23:01 0,7 C 0,4 C 96 % 1012 hPa 0,0 l/m 19,8 km/h (3 Bft) W-SW22.5 250 0 min 0 lux 0,00 min 0,1 C -8,6 C
09.03.2009 23:16 0,7 C 0,5 C 96 % 1012 hPa 0,0 l/m 18,6 km/h (3 Bft) W-SW22.5 255 0 min 0 lux 0,00 min 0,1 C -8,1 C
09.03.2009 23:30 0,9 C 0,7 C 96 % 1012 hPa 0,0 l/m 23,1 km/h (4 Bft) W-SW22.5 255 0 min 0 lux 0,00 min 0,3 C -9,8 C
09.03.2009 23:46 1,0 C 0,8 C 96 % 1012 hPa 0,0 l/m 22,4 km/h (4 Bft) W-SW22.5 250 0 min 0 lux 0,00 min 0,4 C -9,4 C
_ Min-Zeit 06:01 06:16 13:46 00:01 - 22:01 - - - - - 06:01 06:01
Minimum _ -1,1 C -1,0 C 79 % 1002 hPa - 7,3 km/h (2 Bft) - - - - - -2,1 C -19,1 C
_ Max-Zeit 13:31 13:31 04:46 21:01 16:46 10:31 - - 11:16 12:46 16:46 15:01 22:01
Maximum _ 4,2 C 5,6 C 97 % 1012 hPa 1,8 l/m 53,7 km/h
W (7 Bft)
- - 15 min 73,2 klux 15,00 min 1,9 C -0,4 C
Durchschnitt _ 1,2 C 1,3 C 92 % 1007 hPa #2,1 l/m 30,1 km/h (5 Bft) W-SW - #2:59 h 11,5 klux #30 min. 0,0 C -10,9 C